This is the latest recevied weather packets stored in our database for station/object AB4CZ-1. If no packets are shown the sender has not sent any weather packets the latest 10 day(s).
| Time | Temp. | Humidity | Pressure | Rain* | Wind** | Luminosity | Snow |
|---|---|---|---|---|---|---|---|
| 1778134963 | 17.78° C | 98% | 1013.2 hPa | 3.05 mm | - | - | - |
| 1778134904 | 17.78° C | 98% | 1013.2 hPa | 3.05 mm | - | - | - |
| 1778134593 | 17.78° C | 98% | 1013.2 hPa | 2.54 mm | - | - | - |
| 1778133993 | 18.33° C | 98% | 1013.6 hPa | 3.05 mm | - | - | - |
| 1778133885 | 18.33° C | 98% | 1013.5 hPa | 3.56 mm | - | - | - |
| 1778133699 | 18.33° C | 98% | 1013.5 hPa | 3.56 mm | - | - | - |
| 1778133093 | 18.33° C | 98% | 1013.5 hPa | 9.14 mm | - | - | - |
| 1778132793 | 18.33° C | 98% | 1013.5 hPa | 10.41 mm | - | - | - |
| 1778132193 | 18.33° C | 98% | 1013.9 hPa | 11.68 mm | - | - | - |
| 1778131593 | 18.33° C | 98% | 1013.8 hPa | 13.72 mm | - | - | - |
| 1778131299 | 18.33° C | 98% | 1013.9 hPa | 13.72 mm | - | - | - |
| 1778131198 | 18.33° C | 98% | 1014 hPa | 14.22 mm | - | - | - |
| 1778130993 | 18.33° C | 98% | 1014 hPa | 14.22 mm | - | - | - |
| 1778130695 | 18.33° C | 98% | 1014 hPa | 13.97 mm | - | - | - |
| 1778130393 | 18.33° C | 98% | 1014 hPa | 13.46 mm | - | - | - |
| 1778130103 | 18.33° C | 98% | 1014.1 hPa | 12.7 mm | - | - | - |
| 1778129813 | 18.33° C | 98% | 1014.9 hPa | 9.14 mm | - | - | - |
| 1778129506 | 18.33° C | 98% | 1014.6 hPa | 7.37 mm | - | - | - |
| 1778129198 | 18.33° C | 98% | 1014.2 hPa | 5.84 mm | - | - | - |
| 1778129004 | 18.33° C | 98% | 1014.3 hPa | 4.57 mm | - | - | - |
| 1778128893 | 18.33° C | 98% | 1014.3 hPa | 4.57 mm | - | - | - |
| 1778128593 | 18.33° C | 98% | 1014.2 hPa | 4.06 mm | - | - | - |
| 1778128293 | 18.33° C | 98% | 1014 hPa | 3.3 mm | - | - | - |
| 1778127993 | 18.33° C | 98% | 1014 hPa | 3.05 mm | - | - | - |
| 1778127693 | 18.33° C | 98% | 1013.9 hPa | 5.33 mm | - | - | - |
* Rain latest hour (hover to see other rain measurements)
** Current wind speed in m/s (hover to see current wind gust speed)